Date String (YYYY-MM-DD hh:mm:ss) UTC,Instrument flags,Ambient pressure (hPa),Sample flow (lpm),Bypass flow (lpm),Sample temperature (°C),Ambient temperature (°C),ASC tube jacket temperature (°C),LED temperature (°C),Box temperature (°C),Sample RH (%),Span deviation,Mass concentration (μg/m³),Mass concentration (μg/m³),Mass concentration (μg/m³)
DateTimeUTC,F1_M11,P_M11,Q1_M11,Q2_M11,T1_M11,T2_M11,T3_M11,T4_M11,T5_M11,U1_M11,ZSPAN_M11,X0_M11,X2_M11,X1_M11
2022-10-04 04:00:00,,0831.4,5.00,0.00,29.4,27.8,00.0,38.2,31.2,26.2,0000.0,0006.98,0003.75,0003.50
2022-10-04 04:01:00,,0831.4,5.01,0.00,29.4,27.9,00.0,38.2,31.2,26.1,0000.0,0006.93,0003.75,0003.49
2022-10-04 04:02:00,,0831.4,4.99,0.00,29.4,28.0,00.0,38.2,31.2,25.8,0000.0,0007.00,0003.76,0003.49
2022-10-04 04:03:00,,0831.5,5.01,0.00,29.4,28.0,00.0,38.2,31.3,25.6,0000.0,0006.72,0003.79,0003.51
2022-10-04 04:04:00,,0831.4,4.99,0.00,29.4,28.1,00.0,38.2,31.3,25.5,0000.0,0006.37,0003.76,0003.51
2022-10-04 04:05:00,,0831.4,4.99,0.00,29.5,28.1,00.0,38.2,31.3,25.3,0000.0,0006.36,0003.76,0003.50
2022-10-04 04:06:00,,0831.5,5.00,0.00,29.5,28.1,00.0,38.2,31.3,25.2,0000.0,0006.12,0003.74,0003.50
2022-10-04 04:07:00,,0831.4,4.99,0.00,29.5,28.2,00.0,38.3,31.3,25.1,0000.0,0005.58,0003.72,0003.50
2022-10-04 04:08:00,,0831.5,5.00,0.00,29.5,28.2,00.0,38.3,31.4,24.9,0000.0,0005.53,0003.70,0003.48
2022-10-04 04:09:00,,0831.3,4.99,0.00,29.5,28.2,00.0,38.3,31.4,24.8,0000.0,0005.44,0003.68,0003.46
2022-10-04 04:10:00,,0831.3,5.01,0.00,29.6,28.2,00.0,38.3,31.4,25.0,0000.0,0005.23,0003.62,0003.42
2022-10-04 04:11:00,,0831.3,5.01,0.00,29.6,28.3,00.0,38.3,31.4,24.8,0000.0,0005.16,0003.58,0003.39
2022-10-04 04:12:00,,0831.3,5.00,0.00,29.6,28.3,00.0,38.3,31.4,24.6,0000.0,0005.01,0003.54,0003.36
2022-10-04 04:13:00,,0831.3,5.00,0.00,29.6,28.3,00.0,38.3,31.4,24.4,0000.0,0005.02,0003.51,0003.32
2022-10-04 04:14:00,,0831.3,4.99,0.00,29.6,28.3,00.0,38.3,31.5,24.3,0000.0,0004.91,0003.47,0003.29
2022-10-04 04:15:00,,0831.3,5.01,0.00,29.6,28.2,00.0,38.3,31.5,24.2,0000.0,0004.82,0003.44,0003.27
2022-10-04 04:16:00,,0831.3,5.00,0.00,29.6,28.2,00.0,38.4,31.5,24.4,0000.0,0004.73,0003.41,0003.26
2022-10-04 04:17:00,,0831.3,4.99,0.00,29.6,28.2,00.0,38.4,31.5,24.5,0000.0,0004.67,0003.39,0003.24
2022-10-04 04:18:00,,0831.3,5.01,0.00,29.6,28.3,00.0,38.4,31.5,24.4,0000.0,0004.61,0003.37,0003.21
2022-10-04 04:19:00,,0831.3,5.00,0.00,29.7,28.3,00.0,38.4,31.5,24.3,0000.0,0004.55,0003.36,0003.19
2022-10-04 04:20:00,,0831.3,5.00,0.00,29.7,28.3,00.0,38.4,31.5,24.2,0000.0,0004.64,0003.37,0003.18
2022-10-04 04:21:00,,0831.4,5.00,0.00,29.7,28.3,00.0,38.4,31.5,24.2,0000.0,0004.68,0003.36,0003.16
2022-10-04 04:22:00,,0831.3,4.99,0.00,29.7,28.3,00.0,38.4,31.5,24.2,0000.0,0004.62,0003.35,0003.14
2022-10-04 04:23:00,,0831.3,5.01,0.00,29.7,28.3,00.0,38.4,31.5,24.3,0000.0,0004.70,0003.34,0003.13
2022-10-04 04:24:00,,0831.3,5.01,0.00,29.7,28.3,00.0,38.4,31.6,24.2,0000.0,0004.71,0003.32,0003.10
2022-10-04 04:25:00,,0831.3,4.99,0.00,29.7,28.3,00.0,38.4,31.6,24.2,0000.0,0004.61,0003.30,0003.08
2022-10-04 04:26:00,,0831.2,5.00,0.00,29.7,28.3,00.0,38.4,31.6,24.1,0000.0,0004.55,0003.28,0003.04
2022-10-04 04:27:00,,0831.2,4.99,0.00,29.7,28.3,00.0,38.4,31.6,24.1,0000.0,0004.49,0003.26,0003.01
2022-10-04 04:28:00,,0831.2,5.00,0.00,29.7,28.3,00.0,38.4,31.6,24.2,0000.0,0004.44,0003.24,0002.99
2022-10-04 04:29:00,,0831.2,5.00,0.00,29.7,28.3,00.0,38.4,31.6,24.2,0000.0,0004.46,0003.23,0002.98
2022-10-04 04:30:00,,0831.2,4.98,0.00,29.7,28.4,00.0,38.5,31.6,24.2,0000.0,0004.43,0003.22,0002.96
2022-10-04 04:31:00,,0831.3,5.01,0.00,29.8,28.4,00.0,38.5,31.6,24.2,0000.0,0004.33,0003.19,0002.95
2022-10-04 04:32:00,,0831.2,5.00,0.00,29.8,28.4,00.0,38.5,31.6,24.1,0000.0,0004.31,0003.18,0002.92
2022-10-04 04:33:00,,0831.2,5.01,0.00,29.8,28.4,00.0,38.5,31.6,24.1,0000.0,0004.30,0003.17,0002.90
2022-10-04 04:34:00,,0831.2,5.01,0.00,29.8,28.4,00.0,38.5,31.6,24.1,0000.0,0004.30,0003.15,0002.87
2022-10-04 04:35:00,,0831.2,4.99,0.00,29.8,28.4,00.0,38.5,31.6,24.0,0000.0,0004.12,0003.13,0002.84
2022-10-04 04:36:00,,0831.2,5.01,0.00,29.8,28.4,00.0,38.5,31.6,24.0,0000.0,0004.15,0003.12,0002.80
2022-10-04 04:37:00,,0831.2,5.01,0.00,29.8,28.4,00.0,38.5,31.6,24.0,0000.0,0004.27,0003.14,0002.79
2022-10-04 04:38:00,,0831.2,4.99,0.00,29.8,28.4,00.0,38.5,31.6,24.0,0000.0,0004.27,0003.12,0002.76
2022-10-04 04:39:00,,0831.3,5.00,0.00,29.8,28.4,00.0,38.5,31.6,24.0,0000.0,0004.33,0003.12,0002.73
2022-10-04 04:40:00,,0831.2,5.01,0.00,29.8,28.4,00.0,38.5,31.6,23.9,0000.0,0004.20,0003.07,0002.70
2022-10-04 04:41:00,,0831.2,4.99,0.00,29.8,28.4,00.0,38.5,31.6,23.9,0000.0,0004.18,0003.03,0002.66
2022-10-04 04:42:00,,0831.2,5.01,0.00,29.8,28.4,00.0,38.5,31.7,23.9,0000.0,0004.04,0002.97,0002.62
2022-10-04 04:43:00,,0831.2,5.00,0.00,29.8,28.4,00.0,38.5,31.7,23.9,0000.0,0004.05,0002.92,0002.59
2022-10-04 04:44:00,,0831.2,4.99,0.00,29.8,28.4,00.0,38.5,31.7,23.9,0000.0,0004.00,0002.88,0002.56
2022-10-04 04:45:00,,0831.2,5.01,0.00,29.8,28.4,00.0,38.6,31.7,23.8,0000.0,0003.84,0002.84,0002.53
2022-10-04 04:46:00,,0831.2,4.98,0.00,29.8,28.4,00.0,38.6,31.7,23.8,0000.0,0003.85,0002.83,0002.51
2022-10-04 04:47:00,,0831.2,5.00,0.00,29.8,28.4,00.0,38.6,31.7,23.7,0000.0,0003.80,0002.81,0002.49
2022-10-04 04:48:00,,0831.2,5.01,0.00,29.8,28.4,00.0,38.6,31.7,23.7,0000.0,0003.66,0002.75,0002.46
2022-10-04 04:49:00,,0831.2,4.98,0.00,29.8,28.4,00.0,38.6,31.7,23.6,0000.0,0003.59,0002.70,0002.44
2022-10-04 04:50:00,,0831.2,5.01,0.00,29.8,28.4,00.0,38.6,31.7,23.5,0000.0,0003.43,0002.63,0002.40
2022-10-04 04:51:00,,0831.1,4.99,0.00,29.8,28.4,00.0,38.6,31.7,23.4,0000.0,0003.43,0002.61,0002.38
2022-10-04 04:52:00,,0831.2,5.01,0.00,29.8,28.4,00.0,38.6,31.7,23.3,0000.0,0003.46,0002.60,0002.36
2022-10-04 04:53:00,,0831.2,5.00,0.00,29.8,28.4,00.0,38.6,31.7,23.2,0000.0,0003.47,0002.59,0002.35
2022-10-04 04:54:00,,0831.2,5.00,0.00,29.8,28.4,00.0,38.6,31.7,23.0,0000.0,0003.34,0002.55,0002.32
2022-10-04 04:55:00,,0831.2,5.01,0.00,29.8,28.4,00.0,38.6,31.7,23.2,0000.0,0003.21,0002.50,0002.29
2022-10-04 04:56:00,,0831.2,4.98,0.00,29.9,28.4,00.0,38.6,31.7,23.2,0000.0,0003.27,0002.50,0002.28
2022-10-04 04:57:00,,0831.2,5.00,0.00,29.9,28.4,00.0,38.6,31.7,23.3,0000.0,0003.29,0002.48,0002.25
2022-10-04 04:58:00,,0831.2,5.00,0.00,29.9,28.4,00.0,38.6,31.7,23.4,0000.0,0003.35,0002.50,0002.24
2022-10-04 04:59:00,,0831.2,4.99,0.00,29.9,28.4,00.0,38.6,31.7,23.4,0000.0,0003.36,0002.50,0002.22
